| time (UTC) | temp C | wind direction | speed KPH | gust KPH | rain 1hr cm | rain 24hr cm | rain mn cm | humidity % | barometer mb |
| 20260507223815 | 8 | 269 | 1.6 | 4.8 | 0.00 | 0.03 | 0.00 | 92 | 1016.4 |
| 20260507223315 | 8 | 270 | 1.6 | 3.2 | 0.00 | 0.03 | 0.00 | 92 | 1016.4 |
| 20260507222315 | 8 | 270 | 0.0 | 3.2 | 0.00 | 0.05 | 0.00 | 92 | 1016.4 |
| 20260507221816 | 8 | 269 | 0.0 | 3.2 | 0.00 | 0.05 | 0.00 | 91 | 1016.4 |
| 20260507221315 | 8 | 269 | 1.6 | 4.8 | 0.00 | 0.08 | 0.00 | 91 | 1016.3 |
| 20260507220822 | 8 | 269 | 0.0 | 4.8 | 0.00 | 0.08 | 0.00 | 91 | 1016.3 |
| 20260507215815 | 9 | 272 | 0.0 | 1.6 | 0.00 | 0.08 | 0.08 | 91 | 1016.1 |
| 20260507214815 | 9 | 271 | 0.0 | 0.0 | 0.00 | 0.08 | 0.08 | 89 | 1016.0 |
| 20260507214315 | 9 | 269 | 0.0 | 0.0 | 0.00 | 0.08 | 0.08 | 89 | 1016.0 |
| 20260507213815 | 9 | 270 | 0.0 | 0.0 | 0.00 | 0.10 | 0.08 | 89 | 1015.9 |
| 20260507213314 | 10 | 270 | 0.0 | 0.0 | 0.00 | 0.10 | 0.08 | 89 | 1015.9 |
| 20260507212815 | 10 | 270 | 0.0 | 0.0 | 0.00 | 0.10 | 0.08 | 89 | 1015.9 |
| 20260507212316 | 10 | 270 | 0.0 | 0.0 | 0.00 | 0.10 | 0.08 | 88 | 1015.8 |
| 20260507211815 | 10 | 269 | 0.0 | 4.8 | 0.00 | 0.10 | 0.08 | 88 | 1015.8 |
| 20260507210815 | 10 | 270 | 1.6 | 9.7 | 0.00 | 0.10 | 0.08 | 89 | 1015.7 |
| 20260507205815 | 10 | 251 | 0.0 | 1.6 | 0.00 | 0.15 | 0.08 | 88 | 1015.6 |
| 20260507205314 | 10 | 250 | 0.0 | 3.2 | 0.00 | 0.15 | 0.08 | 88 | 1015.6 |
| 20260507204815 | 10 | 251 | 1.6 | 3.2 | 0.00 | 0.15 | 0.08 | 88 | 1015.5 |
| 20260507203814 | 10 | 251 | 1.6 | 4.8 | 0.00 | 0.15 | 0.08 | 87 | 1015.4 |
| 20260507203315 | 10 | 250 | 3.2 | 4.8 | 0.00 | 0.15 | 0.08 | 87 | 1015.4 |
| 20260507202814 | 10 | 246 | 3.2 | 4.8 | 0.00 | 0.15 | 0.08 | 87 | 1015.3 |
| 20260507202315 | 11 | 308 | 1.6 | 4.8 | 0.00 | 0.15 | 0.08 | 86 | 1015.3 |
| 20260507200814 | 11 | 294 | 1.6 | 11.3 | 0.00 | 0.15 | 0.08 | 85 | 1015.0 |
| 20260507195814 | 11 | 248 | 4.8 | 11.3 | 0.00 | 0.15 | 0.08 | 85 | 1014.8 |
| 20260507194315 | 11 | 302 | 4.8 | 12.9 | 0.00 | 0.15 | 0.08 | 84 | 1014.6 |
| 20260507193315 | 11 | 16 | 4.8 | 16.1 | 0.00 | 0.15 | 0.08 | 84 | 1014.4 |
| 20260507192815 | 11 | 292 | 4.8 | 12.9 | 0.00 | 0.15 | 0.08 | 84 | 1014.2 |
| 20260507191815 | 11 | 246 | 3.2 | 11.3 | 0.00 | 0.23 | 0.08 | 85 | 1014.1 |
| 20260507190815 | 12 | 291 | 1.6 | 4.8 | 0.00 | 0.43 | 0.08 | 85 | 1014.0 |
| 20260507190314 | 12 | 292 | 1.6 | 4.8 | 0.00 | 0.61 | 0.08 | 84 | 1014.0 |
| 20260507185814 | 12 | 292 | 3.2 | 4.8 | 0.00 | 0.64 | 0.08 | 83 | 1013.9 |
| 20260507185315 | 12 | 254 | 1.6 | 8.0 | 0.00 | 0.76 | 0.08 | 83 | 1013.8 |
| 20260507184814 | 12 | 254 | 3.2 | 8.0 | 0.00 | 0.84 | 0.08 | 83 | 1013.7 |
| 20260507184315 | 12 | 336 | 1.6 | 8.0 | 0.00 | 0.84 | 0.08 | 83 | 1013.6 |
| 20260507183814 | 12 | 334 | 4.8 | 12.9 | 0.00 | 0.84 | 0.08 | 83 | 1013.5 |
| 20260507183314 | 12 | 307 | 6.4 | 12.9 | 0.00 | 0.86 | 0.08 | 83 | 1013.5 |
| 20260507182314 | 13 | 268 | 3.2 | 9.7 | 0.00 | 0.86 | 0.08 | 81 | 1013.5 |
| 20260507181815 | 13 | 252 | 3.2 | 9.7 | 0.00 | 0.86 | 0.08 | 81 | 1013.4 |
| 20260507181314 | 13 | 323 | 4.8 | 9.7 | 0.00 | 0.86 | 0.08 | 80 | 1013.3 |
| 20260507180816 | 13 | 308 | 4.8 | 8.0 | 0.00 | 0.86 | 0.08 | 79 | 1013.3 |
| 20260507180315 | 13 | 307 | 1.6 | 11.3 | 0.00 | 0.86 | 0.08 | 77 | 1013.2 |
| 20260507175814 | 14 | 306 | 3.2 | 12.9 | 0.00 | 0.86 | 0.08 | 77 | 1013.2 |
| 20260507174814 | 14 | 274 | 3.2 | 9.7 | 0.00 | 0.86 | 0.08 | 75 | 1013.2 |
| 20260507174314 | 14 | 260 | 4.8 | 12.9 | 0.00 | 0.86 | 0.08 | 75 | 1013.3 |
| 20260507173314 | 15 | 338 | 4.8 | 12.9 | 0.00 | 0.86 | 0.08 | 75 | 1013.2 |
| 20260507172814 | 15 | 266 | 4.8 | 11.3 | 0.00 | 0.89 | 0.08 | 74 | 1013.2 |
| 20260507172315 | 15 | 315 | 3.2 | 16.1 | 0.00 | 0.91 | 0.08 | 74 | 1013.3 |
| 20260507171814 | 15 | 296 | 4.8 | 16.1 | 0.00 | 0.97 | 0.08 | 74 | 1013.3 |
| 20260507171315 | 15 | 284 | 8.0 | 16.1 | 0.00 | 1.02 | 0.08 | 73 | 1013.3 |
| 20260507165813 | 15 | 334 | 4.8 | 14.5 | 0.00 | 1.09 | 0.08 | 71 | 1013.3 |
| 20260507165315 | 15 | 321 | 6.4 | 14.5 | 0.00 | 1.09 | 0.08 | 70 | 1013.4 |
| 20260507164314 | 16 | 294 | 4.8 | 19.3 | 0.00 | 1.09 | 0.08 | 68 | 1013.4 |
| 20260507163814 | 16 | 298 | 6.4 | 19.3 | 0.00 | 1.09 | 0.08 | 66 | 1013.0 |
| 20260507163314 | 16 | 272 | 4.8 | 16.1 | 0.00 | 1.09 | 0.08 | 65 | 1013.0 |
| 20260507162314 | 17 | 282 | 4.8 | 16.1 | 0.00 | 1.09 | 0.08 | 62 | 1013.0 |
| 20260507161314 | 17 | 329 | 3.2 | 8.0 | 0.00 | 1.09 | 0.08 | 63 | 1012.9 |
| 20260507160814 | 18 | 225 | 3.2 | 16.1 | 0.00 | 1.09 | 0.08 | 62 | 1012.9 |
| 20260507160314 | 18 | 333 | 4.8 | 16.1 | 0.00 | 1.09 | 0.08 | 63 | 1012.9 |
| 20260507155815 | 18 | 44 | 1.6 | 4.8 | 0.00 | 1.09 | 0.08 | 62 | 1012.8 |
| 20260507155314 | 18 | 0 | 0.0 | 4.8 | 0.00 | 1.09 | 0.08 | 61 | 1012.7 |
| 20260507154814 | 18 | 40 | 1.6 | 9.7 | 0.00 | 1.09 | 0.08 | 60 | 1012.6 |
| 20260507154314 | 18 | 276 | 4.8 | 9.7 | 0.00 | 1.09 | 0.08 | 60 | 1012.4 |
| 20260507153813 | 18 | 98 | 3.2 | 4.8 | 0.00 | 1.09 | 0.08 | 61 | 1012.2 |
| 20260507153314 | 18 | 31 | 1.6 | 4.8 | 0.00 | 1.09 | 0.08 | 62 | 1012.2 |
| 20260507152814 | 19 | 207 | 1.6 | 3.2 | 0.00 | 1.09 | 0.08 | 61 | 1012.1 |
| 20260507152314 | 19 | 208 | 1.6 | 3.2 | 0.00 | 1.09 | 0.08 | 60 | 1012.0 |
| 20260507151814 | 19 | 207 | 1.6 | 3.2 | 0.00 | 1.09 | 0.08 | 58 | 1011.8 |
| 20260507150813 | 20 | 211 | 1.6 | 4.8 | 0.00 | 1.09 | 0.08 | 56 | 1011.4 |
| 20260507150314 | 20 | 107 | 3.2 | 4.8 | 0.00 | 1.09 | 0.08 | 56 | 1011.2 |
| 20260507145814 | 20 | 29 | 1.6 | 11.3 | 0.00 | 1.09 | 0.08 | 53 | 1011.0 |
| 20260507145314 | 20 | 76 | 4.8 | 11.3 | 0.00 | 1.09 | 0.08 | 53 | 1011.1 |
| 20260507144814 | 20 | 103 | 3.2 | 9.7 | 0.00 | 1.09 | 0.08 | 55 | 1010.9 |
| 20260507144314 | 21 | 125 | 4.8 | 9.7 | 0.00 | 1.09 | 0.08 | 54 | 1010.9 |
| 20260507143815 | 21 | 165 | 4.8 | 9.7 | 0.00 | 1.09 | 0.08 | 53 | 1010.9 |
| 20260507143314 | 21 | 103 | 3.2 | 14.5 | 0.00 | 1.09 | 0.08 | 55 | 1010.9 |
| 20260507142314 | 21 | 142 | 4.8 | 12.9 | 0.00 | 1.09 | 0.08 | 54 | 1010.9 |
| 20260507141814 | 21 | 163 | 3.2 | 8.0 | 0.00 | 1.09 | 0.08 | 55 | 1010.9 |
| 20260507141314 | 21 | 330 | 3.2 | 14.5 | 0.00 | 1.09 | 0.08 | 59 | 1010.9 |
| 20260507140814 | 21 | 111 | 4.8 | 14.5 | 0.00 | 1.09 | 0.08 | 55 | 1011.0 |
| 20260507140314 | 21 | 139 | 4.8 | 14.5 | 0.00 | 1.09 | 0.08 | 57 | 1011.0 |
| 20260507135813 | 21 | 104 | 4.8 | 14.5 | 0.00 | 1.09 | 0.08 | 55 | 1011.0 |
| 20260507134814 | 21 | 104 | 4.8 | 14.5 | 0.00 | 1.09 | 0.08 | 55 | 1011.1 |
| 20260507134314 | 21 | 120 | 4.8 | 14.5 | 0.00 | 1.09 | 0.08 | 55 | 1011.1 |
| 20260507133813 | 21 | 128 | 8.0 | 14.5 | 0.00 | 1.09 | 0.08 | 54 | 1011.1 |
| 20260507133314 | 21 | 87 | 4.8 | 12.9 | 0.00 | 1.09 | 0.08 | 54 | 1011.1 |
| 20260507132813 | 22 | 93 | 3.2 | 19.3 | 0.00 | 1.09 | 0.08 | 52 | 1011.1 |
| 20260507131814 | 22 | 132 | 8.0 | 14.5 | 0.00 | 1.09 | 0.08 | 52 | 1011.2 |
| 20260507130813 | 21 | 175 | 1.6 | 9.7 | 0.00 | 1.17 | 0.08 | 50 | 1011.3 |
| 20260507130313 | 22 | 337 | 4.8 | 14.5 | 0.00 | 1.17 | 0.08 | 53 | 1011.3 |
| 20260507125813 | 22 | 107 | 4.8 | 14.5 | 0.00 | 1.22 | 0.08 | 52 | 1011.3 |
| 20260507124814 | 21 | 91 | 4.8 | 14.5 | 0.00 | 1.35 | 0.08 | 53 | 1011.2 |
| 20260507123813 | 20 | 107 | 6.4 | 12.9 | 0.00 | 1.42 | 0.08 | 64 | 1011.3 |
| 20260507122813 | 20 | 326 | 3.2 | 12.9 | 0.00 | 1.45 | 0.08 | 67 | 1011.3 |
| 20260507121815 | 20 | 305 | 3.2 | 4.8 | 0.00 | 1.50 | 0.08 | 63 | 1011.4 |
| 20260507121313 | 21 | 322 | 3.2 | 4.8 | 0.00 | 1.55 | 0.08 | 63 | 1011.4 |
| 20260507120814 | 21 | 26 | 3.2 | 4.8 | 0.00 | 1.63 | 0.08 | 63 | 1011.4 |
| 20260507120313 | 21 | 334 | 1.6 | 4.8 | 0.00 | 1.65 | 0.08 | 63 | 1011.4 |
| 20260507115814 | 20 | 332 | 1.6 | 4.8 | 0.00 | 1.65 | 0.08 | 62 | 1011.4 |
| 20260507114814 | 20 | 330 | 1.6 | 3.2 | 0.00 | 1.75 | 0.08 | 69 | 1011.5 |
| 20260507113813 | 19 | 329 | 1.6 | 4.8 | 0.00 | 1.85 | 0.08 | 72 | 1011.6 |
| 20260507113313 | 20 | 329 | 1.6 | 4.8 | 0.00 | 1.91 | 0.08 | 74 | 1011.6 |
| 20260507112813 | 20 | 355 | 3.2 | 4.8 | 0.00 | 1.93 | 0.08 | 70 | 1011.7 |
| 20260507112314 | 19 | 355 | 1.6 | 4.8 | 0.00 | 1.96 | 0.08 | 73 | 1011.7 |
| 20260507111814 | 19 | 355 | 3.2 | 4.8 | 0.00 | 2.01 | 0.08 | 70 | 1011.7 |
| 20260507110814 | 19 | 355 | 1.6 | 4.8 | 0.00 | 2.03 | 0.08 | 73 | 1011.9 |
| 20260507110313 | 18 | 355 | 3.2 | 4.8 | 0.00 | 2.03 | 0.08 | 75 | 1011.9 |
| 20260507105813 | 18 | 355 | 0.0 | 4.8 | 0.00 | 2.03 | 0.08 | 74 | 1011.9 |
| 20260507105313 | 18 | 355 | 1.6 | 4.8 | 0.00 | 2.03 | 0.08 | 74 | 1012.0 |
| 20260507104313 | 18 | 355 | 0.0 | 4.8 | 0.00 | 2.03 | 0.08 | 77 | 1012.0 |
| 20260507103813 | 18 | 355 | 1.6 | 4.8 | 0.00 | 2.06 | 0.08 | 76 | 1012.0 |
| 20260507102813 | 19 | 355 | 0.0 | 3.2 | 0.00 | 2.11 | 0.08 | 75 | 1012.1 |
| 20260507102313 | 19 | 355 | 0.0 | 4.8 | 0.00 | 2.11 | 0.08 | 70 | 1012.1 |
| 20260507101814 | 19 | 355 | 1.6 | 11.3 | 0.00 | 2.13 | 0.08 | 72 | 1012.1 |
| 20260507101314 | 20 | 30 | 3.2 | 11.3 | 0.00 | 2.13 | 0.08 | 71 | 1012.1 |
| 20260507100813 | 20 | 131 | 4.8 | 11.3 | 0.00 | 2.13 | 0.08 | 67 | 1012.1 |
| 20260507100313 | 20 | 111 | 3.2 | 9.7 | 0.00 | 2.13 | 0.08 | 70 | 1012.1 |
| 20260507095813 | 20 | 113 | 3.2 | 11.3 | 0.00 | 2.13 | 0.08 | 67 | 1012.1 |
| 20260507095313 | 20 | 136 | 4.8 | 11.3 | 0.00 | 2.13 | 0.08 | 67 | 1012.0 |
| 20260507094813 | 20 | 129 | 4.8 | 11.3 | 0.00 | 2.13 | 0.08 | 69 | 1012.1 |
| 20260507094314 | 20 | 98 | 3.2 | 4.8 | 0.00 | 2.16 | 0.08 | 72 | 1012.1 |
| 20260507093813 | 19 | 97 | 1.6 | 4.8 | 0.00 | 2.16 | 0.08 | 71 | 1012.1 |
| 20260507093313 | 19 | 97 | 1.6 | 4.8 | 0.00 | 2.16 | 0.08 | 73 | 1012.1 |
| 20260507092814 | 19 | 97 | 3.2 | 8.0 | 0.00 | 2.16 | 0.08 | 74 | 1012.1 |
| 20260507092313 | 18 | 140 | 1.6 | 8.0 | 0.00 | 2.16 | 0.08 | 74 | 1012.1 |
| 20260507091814 | 18 | 172 | 3.2 | 4.8 | 0.00 | 2.18 | 0.08 | 74 | 1012.1 |
| 20260507091314 | 18 | 173 | 1.6 | 4.8 | 0.00 | 2.18 | 0.08 | 76 | 1012.0 |
| 20260507090813 | 19 | 173 | 1.6 | 4.8 | 0.00 | 2.18 | 0.08 | 74 | 1012.1 |
| 20260507085313 | 18 | 163 | 3.2 | 4.8 | 0.00 | 2.24 | 0.08 | 77 | 1012.0 |
| 20260507083814 | 18 | 124 | 4.8 | 11.3 | 0.00 | 2.34 | 0.08 | 82 | 1012.1 |
| 20260507082813 | 18 | 157 | 3.2 | 11.3 | 0.00 | 2.49 | 0.08 | 82 | 1012.0 |
| 20260507081814 | 18 | 101 | 3.2 | 11.3 | 0.00 | 2.72 | 0.08 | 84 | 1012.1 |
| 20260507081313 | 17 | 105 | 4.8 | 9.7 | 0.00 | 2.79 | 0.08 | 86 | 1012.0 |
| 20260507080814 | 17 | 133 | 4.8 | 4.8 | 0.00 | 2.87 | 0.08 | 87 | 1012.0 |
| 20260507075813 | 17 | 116 | 1.6 | 4.8 | 0.00 | 3.00 | 0.08 | 84 | 1012.0 |
| 20260507075313 | 17 | 116 | 1.6 | 4.8 | 0.00 | 3.02 | 0.08 | 85 | 1012.1 |
| 20260507074813 | 17 | 116 | 1.6 | 4.8 | 0.00 | 3.05 | 0.08 | 86 | 1012.0 |
| 20260507074313 | 17 | 112 | 3.2 | 4.8 | 0.00 | 3.07 | 0.08 | 86 | 1012.0 |
| 20260507073813 | 17 | 112 | 1.6 | 4.8 | 0.00 | 3.10 | 0.08 | 89 | 1011.9 |
| 20260507073314 | 16 | 117 | 1.6 | 4.8 | 0.00 | 3.15 | 0.08 | 89 | 1012.0 |
| 20260507072313 | 16 | 135 | 1.6 | 9.7 | 0.00 | 3.25 | 0.08 | 89 | 1011.8 |
| 20260507071813 | 16 | 314 | 1.6 | 9.7 | 0.00 | 3.30 | 0.08 | 90 | 1011.9 |
| 20260507071313 | 17 | 136 | 4.8 | 9.7 | 0.00 | 3.35 | 0.08 | 90 | 1011.9 |
| 20260507070813 | 17 | 103 | 1.6 | 4.8 | 0.00 | 3.43 | 0.08 | 90 | 1011.9 |
| 20260507070313 | 16 | 190 | 1.6 | 4.8 | 0.00 | 3.51 | 0.08 | 91 | 1011.8 |
| 20260507065813 | 16 | 190 | 1.6 | 4.8 | 0.00 | 3.56 | 0.08 | 91 | 1011.8 |
| 20260507065313 | 16 | 190 | 0.0 | 3.2 | 0.00 | 3.61 | 0.08 | 91 | 1011.9 |
| 20260507064813 | 16 | 190 | 1.6 | 3.2 | 0.00 | 3.63 | 0.08 | 91 | 1011.8 |
| 20260507064313 | 16 | 152 | 1.6 | 3.2 | 0.00 | 3.66 | 0.08 | 94 | 1011.8 |
| 20260507063813 | 15 | 152 | 0.0 | 1.6 | 0.00 | 3.71 | 0.08 | 96 | 1011.7 |
| 20260507063313 | 15 | 152 | 0.0 | 3.2 | 0.00 | 3.76 | 0.08 | 97 | 1011.7 |
| 20260507062813 | 15 | 152 | 1.6 | 4.8 | 0.00 | 3.81 | 0.08 | 98 | 1011.7 |
| 20260507062313 | 14 | 144 | 1.6 | 4.8 | 0.00 | 3.81 | 0.08 | 98 | 1011.7 |
| 20260507061313 | 14 | 166 | 0.0 | 3.2 | 0.00 | 3.81 | 0.08 | 99 | 1011.8 |
| 20260507060813 | 13 | 149 | 1.6 | 3.2 | 0.00 | 3.81 | 0.08 | 99 | 1011.8 |
| 20260507060313 | 13 | 147 | 0.0 | 3.2 | 0.00 | 3.81 | 0.08 | 98 | 1011.8 |
| 20260507055313 | 13 | 147 | 0.0 | 1.6 | 0.00 | 3.81 | 0.08 | 99 | 1011.7 |
| 20260507054813 | 13 | 147 | 0.0 | 1.6 | 0.00 | 3.81 | 0.08 | 99 | 1011.8 |
| 20260507054313 | 13 | 147 | 0.0 | 3.2 | 0.00 | 3.81 | 0.08 | 99 | 1011.8 |
| 20260507053813 | 12 | 147 | 0.0 | 3.2 | 0.00 | 3.81 | 0.08 | 99 | 1011.8 |
| 20260507053313 | 12 | 155 | 1.6 | 4.8 | 0.00 | 3.81 | 0.08 | 98 | 1011.7 |
| 20260507052812 | 12 | 156 | 1.6 | 4.8 | 0.00 | 3.81 | 0.08 | 98 | 1011.6 |
| 20260507052313 | 12 | 156 | 3.2 | 4.8 | 0.00 | 3.81 | 0.08 | 99 | 1011.6 |
| 20260507051813 | 12 | 177 | 0.0 | 3.2 | 0.00 | 3.81 | 0.08 | 98 | 1011.4 |
| 20260507051313 | 12 | 152 | 0.0 | 0.0 | 0.00 | 3.81 | 0.08 | 98 | 1011.4 |
| 20260507050313 | 12 | 153 | 0.0 | 0.0 | 0.00 | 3.81 | 0.08 | 98 | 1011.3 |
| 20260507045813 | 12 | 153 | 0.0 | 1.6 | 0.00 | 3.81 | 0.08 | 98 | 1011.3 |
| 20260507045312 | 12 | 153 | 0.0 | 3.2 | 0.00 | 3.81 | 0.08 | 98 | 1011.2 |
| 20260507044813 | 12 | 153 | 0.0 | 3.2 | 0.00 | 3.81 | 0.08 | 98 | 1011.2 |
| 20260507044313 | 12 | 153 | 1.6 | 3.2 | 0.00 | 3.81 | 0.08 | 98 | 1011.1 |
| 20260507043813 | 12 | 153 | 0.0 | 1.6 | 0.00 | 3.81 | 0.08 | 98 | 1011.0 |
| 20260507043312 | 12 | 153 | 0.0 | 1.6 | 0.00 | 3.81 | 0.08 | 98 | 1011.1 |
| 20260507042814 | 12 | 153 | 0.0 | 3.2 | 0.00 | 3.81 | 0.08 | 98 | 1011.1 |
| 20260507042313 | 12 | 153 | 0.0 | 3.2 | 0.00 | 3.81 | 0.08 | 98 | 1011.0 |
| 20260507041813 | 12 | 153 | 1.6 | 3.2 | 0.00 | 3.81 | 0.08 | 98 | 1011.0 |
| 20260507041312 | 12 | 155 | 0.0 | 3.2 | 0.00 | 3.81 | 0.08 | 98 | 1011.1 |
| 20260507040813 | 12 | 153 | 1.6 | 3.2 | 0.00 | 3.81 | 0.08 | 98 | 1011.0 |
| 20260507040312 | 12 | 153 | 0.0 | 3.2 | 0.00 | 3.81 | 0.08 | 98 | 1010.9 |
| 20260507035813 | 12 | 153 | 0.0 | 3.2 | 0.00 | 3.81 | 0.08 | 98 | 1010.9 |
| 20260507035314 | 12 | 153 | 0.0 | 0.0 | 0.00 | 3.81 | 0.08 | 98 | 1010.9 |
| 20260507034312 | 12 | 153 | 0.0 | 3.2 | 0.00 | 3.81 | 0.08 | 98 | 1010.8 |
| 20260507033813 | 12 | 153 | 0.0 | 3.2 | 0.00 | 3.81 | 0.08 | 98 | 1010.9 |
| 20260507033312 | 12 | 153 | 0.0 | 1.6 | 0.00 | 3.81 | 0.08 | 98 | 1010.8 |
| 20260507032813 | 12 | 153 | 0.0 | 3.2 | 0.00 | 3.81 | 0.08 | 98 | 1010.8 |
| 20260507032313 | 12 | 153 | 0.0 | 3.2 | 0.00 | 3.81 | 0.08 | 98 | 1010.8 |
| 20260507031813 | 12 | 153 | 0.0 | 3.2 | 0.00 | 3.81 | 0.08 | 98 | 1010.8 |
| 20260507031312 | 12 | 153 | 0.0 | 3.2 | 0.00 | 3.81 | 0.08 | 98 | 1010.7 |
| 20260507030814 | 12 | 153 | 1.6 | 3.2 | 0.00 | 3.91 | 0.08 | 98 | 1010.8 |
| 20260507030312 | 12 | 153 | 1.6 | 3.2 | 0.00 | 3.94 | 0.08 | 98 | 1010.8 |
| 20260507025812 | 12 | 154 | 0.0 | 3.2 | 0.00 | 4.09 | 0.08 | 98 | 1010.8 |
| 20260507025313 | 12 | 153 | 0.0 | 4.8 | 0.00 | 4.09 | 0.08 | 98 | 1010.7 |
| 20260507023812 | 12 | 138 | 0.0 | 4.8 | 0.00 | 4.09 | 0.08 | 98 | 1010.7 |
| 20260507023312 | 12 | 138 | 0.0 | 4.8 | 0.00 | 4.09 | 0.08 | 98 | 1010.7 |
| 20260507022813 | 12 | 138 | 1.6 | 4.8 | 0.00 | 4.09 | 0.08 | 98 | 1010.5 |
| 20260507022312 | 12 | 138 | 1.6 | 3.2 | 0.00 | 4.09 | 0.08 | 98 | 1010.5 |
| 20260507021813 | 12 | 138 | 0.0 | 3.2 | 0.00 | 4.09 | 0.08 | 98 | 1010.6 |
| 20260507021312 | 12 | 138 | 0.0 | 1.6 | 0.00 | 4.09 | 0.08 | 98 | 1010.6 |
| 20260507015312 | 12 | 137 | 1.6 | 4.8 | 0.00 | 4.09 | 0.08 | 98 | 1010.6 |
| 20260507014812 | 12 | 122 | 0.0 | 3.2 | 0.03 | 4.09 | 0.08 | 98 | 1010.6 |
| 20260507014312 | 12 | 122 | 0.0 | 3.2 | 0.03 | 4.09 | 0.08 | 98 | 1010.7 |
| 20260507013812 | 12 | 122 | 0.0 | 0.0 | 0.03 | 4.09 | 0.08 | 98 | 1010.7 |
| 20260507013313 | 13 | 122 | 0.0 | 3.2 | 0.03 | 4.09 | 0.08 | 98 | 1010.6 |
| 20260507012813 | 13 | 122 | 1.6 | 4.8 | 0.03 | 4.09 | 0.08 | 98 | 1010.5 |
| 20260507011813 | 13 | 300 | 1.6 | 3.2 | 0.03 | 4.09 | 0.08 | 98 | 1010.4 |
| 20260507011312 | 12 | 299 | 0.0 | 3.2 | 0.03 | 4.11 | 0.08 | 98 | 1010.4 |
| 20260507010813 | 13 | 300 | 0.0 | 4.8 | 0.03 | 4.11 | 0.08 | 98 | 1010.4 |
| 20260507010312 | 13 | 300 | 1.6 | 4.8 | 0.03 | 4.14 | 0.08 | 98 | 1010.4 |
| 20260507005813 | 13 | 299 | 0.0 | 4.8 | 0.03 | 4.17 | 0.08 | 98 | 1010.4 |
| 20260507005312 | 13 | 299 | 1.6 | 3.2 | 0.03 | 4.17 | 0.08 | 98 | 1010.4 |
| 20260507004812 | 13 | 299 | 0.0 | 3.2 | 0.00 | 4.17 | 0.05 | 98 | 1010.4 |
| 20260507004312 | 13 | 299 | 1.6 | 3.2 | 0.00 | 4.19 | 0.05 | 98 | 1010.5 |
| 20260507003813 | 13 | 299 | 0.0 | 3.2 | 0.00 | 4.19 | 0.05 | 98 | 1010.5 |
| 20260507003312 | 13 | 299 | 0.0 | 4.8 | 0.00 | 4.19 | 0.05 | 98 | 1010.6 |
| 20260507002813 | 13 | 299 | 1.6 | 4.8 | 0.00 | 4.22 | 0.05 | 98 | 1010.7 |
| 20260507002312 | 13 | 167 | 1.6 | 4.8 | 0.00 | 4.22 | 0.05 | 98 | 1010.8 |
| 20260507001812 | 13 | 296 | 0.0 | 4.8 | 0.00 | 4.29 | 0.05 | 98 | 1010.8 |
| 20260507001312 | 12 | 296 | 1.6 | 4.8 | 0.00 | 4.29 | 0.05 | 98 | 1010.7 |
| 20260507000813 | 13 | 296 | 1.6 | 4.8 | 0.00 | 4.29 | 0.05 | 98 | 1010.7 |
| 20260507000314 | 13 | 296 | 1.6 | 4.8 | 0.00 | 4.29 | 0.05 | 98 | 1010.7 |
| 20260506235812 | 13 | 296 | 3.2 | 4.8 | 0.00 | 4.29 | 0.05 | 98 | 1010.7 |
| 20260506235313 | 12 | 296 | 0.0 | 4.8 | 0.00 | 4.29 | 0.05 | 98 | 1010.7 |
| 20260506234312 | 12 | 295 | 1.6 | 4.8 | 0.00 | 4.29 | 0.05 | 98 | 1010.9 |
| 20260506233812 | 12 | 295 | 1.6 | 4.8 | 0.00 | 4.29 | 0.05 | 98 | 1010.8 |
| 20260506233312 | 13 | 296 | 0.0 | 4.8 | 0.00 | 4.32 | 0.05 | 98 | 1010.9 |
| 20260506232812 | 13 | 272 | 1.6 | 4.8 | 0.00 | 4.34 | 0.05 | 98 | 1011.0 |
| 20260506232312 | 13 | 245 | 0.0 | 4.8 | 0.03 | 4.39 | 0.05 | 98 | 1011.0 |
| 20260506231812 | 13 | 245 | 3.2 | 4.8 | 0.05 | 4.47 | 0.05 | 98 | 1010.9 |
| 20260506231313 | 13 | 146 | 1.6 | 3.2 | 0.05 | 4.50 | 0.05 | 98 | 1010.9 |
| 20260506230812 | 13 | 146 | 0.0 | 1.6 | 0.05 | 4.57 | 0.05 | 98 | 1011.1 |
| 20260506230312 | 13 | 146 | 1.6 | 3.2 | 0.05 | 4.62 | 0.05 | 98 | 1011.0 |
| 20260506225812 | 13 | 146 | 1.6 | 3.2 | 0.05 | 4.67 | 0.05 | 98 | 1010.9 |
| 20260506225313 | 13 | 146 | 1.6 | 3.2 | 0.05 | 4.75 | 0.05 | 98 | 1010.9 |
| 20260506224812 | 13 | 146 | 0.0 | 3.2 | 0.05 | 4.75 | 0.05 | 98 | 1010.9 |
| 20260506224312 | 13 | 146 | 1.6 | 3.2 | 0.08 | 4.75 | 0.05 | 98 | 1010.8 |